This demonstration page uses our WeatherBlox Daily Observations layout. Learn more.

Left ArrowRight Arrow

Hourly Observations for August 6, 2022

Temp ( °F °C ) Dew Point ( °F °C ) Humidity (%) Winds ( mph kmh ) Pressure ( in mb ) Visibility ( mi km ) Precip ( " mm )
12:52 am 00:52 Cloudy 80 26.7 72 22.2 76 76 SSE 12 19 29.89 1012 10 16 0.00 0.00
1:52 am 01:52 Cloudy 80 26.7 72 22.2 76 76 SSE 10 17 29.88 1012 10 16 0.00 0.00
2:52 am 02:52 Mostly Cloudy 80 26.7 72 22.2 76 76 SSE 10 17 29.88 1012 10 16 0.00 0.00
3:52 am 03:52 Mostly Cloudy 80 26.7 73 22.8 79 79 SSE 10 17 29.87 1011 10 16 0.00 0.00
4:52 am 04:52 Mostly Cloudy 79 26.1 72 22.2 79 79 SSE 12 19 29.85 1011 10 16 0.00 0.00
5:52 am 05:52 Mostly Cloudy 78 25.6 73 22.8 85 85 SSE 10 17 29.85 1011 10 16 0.00 0.00
6:52 am 06:52 Mostly Cloudy 79 26.1 73 22.8 82 82 S 14 22 29.85 1011 10 16 0.00 0.00
7:52 am 07:52 Mostly Cloudy 80 26.7 73 22.8 79 79 S 13 20 29.85 1011 10 16 0.00 0.00
8:52 am 08:52 Mostly Cloudy 82 27.8 73 22.8 74 74 SSE 12 19 29.87 1012 10 16 0.00 0.00
9:52 am 09:52 Mostly Cloudy 85 29.4 73 22.8 68 68 S 5 7 29.89 1012 10 16 0.00 0.00
10:52 am 10:52 Mostly Cloudy 90 32.2 72 22.2 56 56 S 9 15 29.88 1012 10 16 0.00 0.00
11:52 am 11:52 Partly Cloudy 92 33.3 72 22.2 52 52 S 8 13 29.88 1012 10 16 0.00 0.00
12:52 pm 12:52 Partly Cloudy 96 35.6 73 22.8 47 47 S 10 17 29.86 1011 10 16 0.00 0.00
1:52 pm 13:52 Partly Cloudy 97 36.1 75 23.9 49 49 S 13 20 29.85 1011 10 16 0.00 0.00
2:52 pm 14:52 Partly Cloudy 98 36.7 74 23.3 46 46 SE 20 31 29.84 1010 10 16 0.00 0.00
3:52 pm 15:52 Partly Cloudy 100 37.8 72 22.2 40 40 SSE 15 24 29.83 1010 10 16 0.00 0.00
4:52 pm 16:52 Partly Cloudy 99 37.2 73 22.8 43 43 SSE 18 30 29.83 1010 10 16 0.00 0.00
5:52 pm 17:52 Partly Cloudy 100 37.8 70 21.1 38 38 S 16 26 29.82 1010 10 16 0.00 0.00
6:52 pm 18:52 Partly Cloudy 98 36.7 74 23.3 46 46 S 12 19 29.82 1010 10 16 0.00 0.00
7:52 pm 19:52 Mostly Cloudy 95 35 74 23.3 51 51 SSE 13 20 29.83 1010 10 16 0.00 0.00
8:52 pm 20:52 Mostly Cloudy 93 33.9 74 23.3 54 54 SSE 10 17 29.85 1011 10 16 0.00 0.00
9:52 pm 21:52 Mostly Cloudy 88 31.1 75 23.9 66 66 SSE 9 15 29.87 1011 10 16 0.00 0.00
10:52 pm 22:52 Partly Cloudy 88 31.1 74 23.3 63 63 S 14 22 29.87 1011 10 16 0.00 0.00
11:52 pm 23:52 Partly Cloudy 87 30.6 73 22.8 63 63 S 13 20 29.87 1012 10 16 0.00 0.00

Powered by AerisWeather